[[{"header":{"parameterUnit":"m.s-1","parameterCategory":1,"la1":30.2991,"la2":30.254,"lo1":-89.0895,"lo2":-89.0444,"dy":0.0017,"dx":0.0017,"nx":28,"ny":28,"refTime":"2025-03-02T09:00:00:Z","depth":0,"parameterNumber":2,"parameterNumberName":"U-component_of_WINDS"},"data":[0,0,0,0,0,0,0,0,0,0,0,0,0,0,0,0,0,0,0,0,0,0,0,0,0,0,0,0,0,0,0,0,0,0,0,0,0,0,0,0,0,0,0,0,0,0,0,0,0,0,0,0,0,0,0,0,0,0,-2.5001,-2.5001,0,-2.4961,-2.4961,-2.496,-2.4886,-2.4884,-2.4883,-2.4881,-2.4843,-2.4843,-2.4843,0,0,0,0,0,0,0,0,0,0,0,0,0,-2.5015,-2.5016,-2.5001,-2.5001,-2.5,-2.4961,-2.4961,-2.496,-2.4886,-2.4884,-2.4882,-2.4881,-2.4842,-2.4843,-2.4843,0,0,0,0,0,0,0,0,0,0,0,0,0,-2.4996,-2.5016,-2.5001,-2.4958,-2.4954,-2.4961,-2.4961,-2.496,-2.4886,-2.4884,-2.4882,-2.488,-2.4842,-2.4843,-2.4843,-2.489,0,0,-2.4845,-2.4845,0,0,0,0,0,0,0,0,-2.4997,-2.4995,-2.4965,-2.4961,-2.4957,-2.4926,-2.4951,-2.4937,-2.4887,-2.4912,-2.4881,-2.4879,-2.4872,-2.487,-2.4867,-2.4888,-2.4886,-2.4845,-2.4845,-2.4845,-2.4845,0,0,0,0,0,0,0,-2.4999,-2.4997,-2.4985,-2.4965,-2.496,-2.4942,-2.4937,-2.4948,-2.4905,-2.491,-2.4904,-2.49,-2.4869,-2.4867,-2.4866,-2.4886,-2.4845,-2.4845,-2.4846,-2.4846,-2.4944,-2.4947,0,0,0,0,0,0,-2.5006,-2.4998,-2.4987,-2.4984,-2.4972,-2.4943,-2.4938,-2.4938,-2.4905,-2.4897,-2.4902,-2.4897,-2.4867,-2.4866,-2.4864,-2.4918,-2.4845,-2.4846,-2.4846,-2.4942,-2.4945,-2.4947,0,0,0,0,0,0,-2.5006,-2.5006,-2.4988,-2.499,-2.4986,-2.4945,-2.4947,-2.4939,-2.4936,-2.4899,-2.4891,-2.4908,-2.4866,-2.4864,-2.4884,-2.4916,-2.4846,-2.4846,-2.4939,-2.4943,-2.4946,-2.5025,0,0,0,0,0,0,-2.5007,-2.5006,-2.5023,-2.4991,-2.4986,-2.5009,-2.4949,-2.4939,-2.4937,-2.493,-2.4902,-2.4895,-2.4864,-2.4884,-2.4885,-2.4915,-2.4847,-2.4936,-2.4941,-2.4945,-2.502,-2.5031,-2.5041,0,0,0,0,0,-2.5008,-2.5047,-2.5024,-2.5023,-2.5006,-2.501,-2.5008,-2.497,-2.494,-2.4957,-2.4933,-2.4896,-2.4912,-2.4887,-2.4887,-2.4918,-2.4934,-2.494,-2.4945,-2.5015,-2.5029,-2.504,0,0,0,0,0,0,-2.5085,-2.5042,-2.5016,-2.5046,-2.5032,-2.4998,-2.5018,-2.4986,-2.4981,-2.4975,-2.4929,-2.4923,-2.495,-2.4936,-2.4909,-2.4962,-2.4917,-2.4923,-2.4971,-2.4983,-2.4994,-2.4997,-2.4847,0,0,0,0,0,-2.5105,-2.5111,-2.5073,-2.5103,-2.5098,-2.5059,-2.506,-2.5032,-2.5016,-2.501,-2.4988,-2.4975,-2.4977,-2.4979,-2.4979,-2.5017,-2.5011,-2.5038,-2.5049,-2.5058,-2.5063,-2.5084,-2.5096,-2.4965,-2.4965,-2.4964,0,0,-2.5147,-2.5125,-2.5131,-2.5118,-2.5104,-2.5113,-2.5055,-2.5066,-2.5072,-2.5012,-2.503,-2.5014,-2.4996,-2.5026,-2.5038,-2.5015,-2.5098,-2.5064,-2.5072,-2.5073,-2.5091,-2.5103,-2.5114,-2.4968,-2.4967,-2.4967,0,0,-2.5229,-2.5211,-2.5235,-2.5222,-2.5202,-2.5176,-2.5182,-2.5152,-2.5139,-2.5156,-2.5112,-2.5118,-2.5122,-2.5112,-2.5107,-2.5185,-2.5152,-2.5187,-2.5242,-2.5263,-2.5273,-2.5282,-2.5312,-2.5323,-2.5192,-2.5192,-2.5193,0,-2.5284,-2.5294,-2.5251,-2.5265,-2.5262,-2.5207,-2.5231,-2.5221,-2.5202,-2.5201,-2.5175,-2.518,-2.5164,-2.5191,-2.521,-2.5208,-2.5214,-2.519,-2.5275,-2.5284,-2.5291,-2.5319,-2.533,-2.5197,-2.5196,-2.5196,-2.5195,0,-2.5364,-2.5371,-2.5393,-2.5376,-2.5374,-2.5393,-2.5355,-2.5358,-2.5331,-2.5308,-2.5327,-2.5306,-2.5301,-2.5305,-2.5278,-2.533,-2.5316,-2.5283,-2.5238,-2.5309,-2.5334,-2.5345,-2.5203,-2.5202,-2.52,-2.5199,0,0,-2.5493,-2.5452,-2.5461,-2.5453,-2.5426,-2.5432,-2.5449,-2.5443,-2.5448,-2.5437,-2.5451,-2.5456,-2.5426,-2.542,-2.5392,-2.541,-2.5475,-2.5375,-2.5374,-2.5396,-2.5532,-2.5558,-2.5571,-2.5452,-2.5454,-2.5455,-2.5534,0,-2.557,-2.5596,-2.5559,-2.5594,-2.5602,-2.555,-2.5565,-2.5551,-2.553,-2.5534,-2.5511,-2.5516,-2.5475,-2.5471,-2.5487,-2.5464,-2.5502,-2.5457,-2.5467,-2.5467,-2.5474,-2.5584,-2.5611,-2.5687,-2.5544,-2.5545,-2.5546,0,-2.5663,-2.5656,-2.5693,-2.5665,-2.5666,-2.5681,-2.5673,-2.5677,-2.5661,-2.5644,-2.5639,-2.5605,-2.5621,-2.5575,-2.5598,-2.5568,-2.5569,-2.5559,-2.5561,-2.5562,-2.5512,-2.5589,-2.571,-2.5722,-2.5561,-2.556,-2.5559,0,-2.5756,-2.5756,-2.5778,-2.5772,-2.574,-2.5751,-2.5738,-2.5719,-2.5719,-2.5713,-2.5712,-2.5708,-2.5706,-2.5704,-2.567,-2.564,-2.5698,-2.5649,-2.5686,-2.5687,-2.5702,-2.5702,-2.5826,-2.57,-2.57,-2.57,-2.5699,0,-2.5847,-2.5872,-2.5819,-2.5833,-2.5859,-2.5816,-2.5843,-2.5825,-2.5809,-2.5819,-2.5774,-2.5784,-2.5738,-2.5744,-2.5718,-2.5741,-2.574,-2.5729,-2.5722,-2.5734,-2.5736,-2.5735,-2.573,-2.5703,-2.5702,-2.5701,-2.5701,0,-2.5956,-2.5921,-2.5942,-2.591,-2.5902,-2.5923,-2.5896,-2.5908,-2.5884,-2.5897,-2.5898,-2.5861,-2.5866,-2.5831,-2.583,-2.5812,-2.5849,-2.5832,-2.5855,-2.585,-2.5889,-2.5887,-2.6019,-2.6035,-2.5898,-2.5899,-2.59,0,-2.6017,-2.6035,-2.6004,-2.6007,-2.5997,-2.6002,-2.6001,-2.596,-2.5961,-2.5944,-2.5958,-2.5959,-2.5958,-2.5968,-2.5942,-2.5941,-2.5925,-2.5971,-2.5924,-2.5936,-2.5927,-2.5928,-2.593,-2.5981,-2.5983,-2.5984,-2.5986,0,-2.613,-2.6112,-2.6112,-2.6107,-2.6107,-2.6101,-2.6092,-2.6097,-2.6052,-2.6056,-2.606,-2.6059,-2.6057,-2.6059,-2.6053,-2.604,-2.6007,-2.6,-2.6009,-2.6022,-2.6036,-2.6031,-2.5883,-2.5998,-2.5997,-2.5996,-2.5995,-2.5995,-2.6218,-2.6231,-2.6212,-2.6214,-2.6203,-2.6196,-2.6206,-2.6183,-2.6185,-2.618,-2.6155,-2.6165,-2.6148,-2.6136,-2.6128,-2.6135,-2.6113,-2.6125,-2.6128,-2.6133,-2.614,-2.6033,-2.6133,-2.6133,-2.6132,-2.6132,-2.6132,0,-2.6329,-2.6314,-2.6317,-2.6305,-2.6307,-2.6273,-2.6262,-2.6266,-2.6274,-2.6262,-2.6261,-2.6267,-2.6269,-2.6243,-2.6241,-2.6252,-2.6237,-2.6254,-2.6254,-2.6252,-2.6159,-2.6153,-2.6266,-2.6266,-2.6266,-2.6266,-2.6266,-2.6266,-2.6388,-2.641,-2.639,-2.6406,-2.6391,-2.6399,-2.6396,-2.6389,-2.6379,-2.6387,-2.6388,-2.637,-2.6353,-2.635,-2.6351,-2.6343,-2.6346,-2.6369,-2.6356,-2.6271,-2.6258,-2.6245,-2.6239,-2.6369,-2.6369,-2.6448,-2.6449,-2.6449]},{"header":{"parameterUnit":"m.s-1","parameterCategory":1,"la1":30.2991,"la2":30.254,"lo1":-89.0895,"lo2":-89.0444,"dy":0.0017,"dx":0.0017,"nx":28,"ny":28,"refTime":"2025-03-02T09:00:00:Z","depth":0,"parameterNumber":3,"parameterNumberName":"V-component_of_WINDS"},"data":[0,0,0,0,0,0,0,0,0,0,0,0,0,0,0,0,0,0,0,0,0,0,0,0,0,0,0,0,0,0,0,0,0,0,0,0,0,0,0,0,0,0,0,0,0,0,0,0,0,0,0,0,0,0,0,0,0,0,-2.6408,-2.6409,0,-2.6493,-2.6494,-2.6495,-2.6533,-2.6533,-2.6533,-2.6533,-2.6619,-2.6622,-2.6624,0,0,0,0,0,0,0,0,0,0,0,0,0,-2.6277,-2.6279,-2.6408,-2.6409,-2.641,-2.6493,-2.6494,-2.6495,-2.6533,-2.6533,-2.6533,-2.6533,-2.6619,-2.6622,-2.6624,0,0,0,0,0,0,0,0,0,0,0,0,0,-2.6345,-2.628,-2.6408,-2.6439,-2.6443,-2.6493,-2.6494,-2.6496,-2.6533,-2.6533,-2.6533,-2.6533,-2.6618,-2.6621,-2.6625,-2.665,0,0,-2.6636,-2.6637,0,0,0,0,0,0,0,0,-2.6341,-2.635,-2.6433,-2.6437,-2.6441,-2.6502,-2.648,-2.6547,-2.6533,-2.6499,-2.6533,-2.6533,-2.6581,-2.6587,-2.6604,-2.6654,-2.6658,-2.6636,-2.6638,-2.664,-2.6641,0,0,0,0,0,0,0,-2.6336,-2.6346,-2.6442,-2.6434,-2.6439,-2.6448,-2.6458,-2.6493,-2.6539,-2.6502,-2.6505,-2.6514,-2.6583,-2.66,-2.6606,-2.6659,-2.6636,-2.6639,-2.6641,-2.6643,-2.6736,-2.6736,0,0,0,0,0,0,-2.6327,-2.6342,-2.6439,-2.6444,-2.639,-2.6451,-2.6462,-2.6483,-2.6539,-2.6548,-2.6515,-2.6516,-2.6594,-2.6602,-2.6609,-2.6643,-2.664,-2.6643,-2.6645,-2.6736,-2.6736,-2.6736,0,0,0,0,0,0,-2.6324,-2.6335,-2.6435,-2.6394,-2.6408,-2.6453,-2.6477,-2.6485,-2.6502,-2.6549,-2.6557,-2.6524,-2.6594,-2.6604,-2.664,-2.6647,-2.6645,-2.6648,-2.6735,-2.6736,-2.6736,-2.6711,0,0,0,0,0,0,-2.632,-2.6334,-2.6344,-2.6394,-2.641,-2.6465,-2.6477,-2.6486,-2.6508,-2.6511,-2.656,-2.6568,-2.6595,-2.6634,-2.6643,-2.6652,-2.6651,-2.6735,-2.6735,-2.6736,-2.6712,-2.6711,-2.671,0,0,0,0,0,-2.6315,-2.6333,-2.6344,-2.6356,-2.6423,-2.6465,-2.6474,-2.6505,-2.6509,-2.6519,-2.6549,-2.6566,-2.6644,-2.6638,-2.6648,-2.6658,-2.6734,-2.6735,-2.6736,-2.6712,-2.6711,-2.671,0,0,0,0,0,0,-2.6281,-2.634,-2.6353,-2.6388,-2.6421,-2.6471,-2.6486,-2.6503,-2.6536,-2.6537,-2.6574,-2.6585,-2.6618,-2.6641,-2.6633,-2.6686,-2.6691,-2.6694,-2.6669,-2.6669,-2.6668,-2.6662,-2.6654,0,0,0,0,0,-2.6278,-2.6308,-2.6357,-2.6383,-2.6399,-2.6439,-2.6459,-2.648,-2.6516,-2.653,-2.6563,-2.6597,-2.663,-2.665,-2.6683,-2.6715,-2.6727,-2.6727,-2.6726,-2.6725,-2.6728,-2.6748,-2.6749,-2.6739,-2.6739,-2.6739,0,0,-2.6272,-2.6307,-2.6323,-2.6377,-2.6406,-2.6435,-2.6451,-2.6482,-2.6504,-2.6535,-2.6571,-2.6596,-2.6637,-2.6672,-2.6689,-2.6692,-2.6733,-2.6726,-2.6725,-2.6728,-2.6749,-2.675,-2.675,-2.6739,-2.6739,-2.6739,0,0,-2.6275,-2.6305,-2.633,-2.6359,-2.6402,-2.6429,-2.6435,-2.6483,-2.6501,-2.6538,-2.6562,-2.6589,-2.6644,-2.6673,-2.6694,-2.6709,-2.6726,-2.6719,-2.6715,-2.6734,-2.6735,-2.6736,-2.6742,-2.6744,-2.6721,-2.672,-2.672,0,-2.6261,-2.6308,-2.6341,-2.6371,-2.6394,-2.6424,-2.645,-2.6476,-2.6527,-2.6542,-2.6546,-2.6616,-2.6646,-2.6688,-2.6692,-2.6708,-2.6716,-2.6714,-2.6732,-2.6733,-2.6735,-2.6741,-2.6744,-2.6719,-2.6719,-2.672,-2.672,0,-2.6289,-2.6321,-2.6336,-2.6386,-2.6411,-2.6438,-2.6476,-2.6497,-2.6516,-2.6543,-2.658,-2.6617,-2.6658,-2.6669,-2.6687,-2.6714,-2.6715,-2.6725,-2.6731,-2.6734,-2.6741,-2.6744,-2.6718,-2.6718,-2.6719,-2.6719,0,0,-2.6274,-2.6342,-2.6348,-2.6371,-2.6421,-2.6446,-2.6476,-2.6516,-2.6534,-2.6568,-2.6594,-2.664,-2.665,-2.6674,-2.6696,-2.6713,-2.6724,-2.6721,-2.6722,-2.6721,-2.6757,-2.675,-2.6753,-2.6735,-2.6736,-2.6736,-2.6754,0,-2.6285,-2.6339,-2.6371,-2.6412,-2.6442,-2.6471,-2.6497,-2.6531,-2.6556,-2.6585,-2.6614,-2.6646,-2.6656,-2.6671,-2.6689,-2.6719,-2.6732,-2.6718,-2.676,-2.6762,-2.675,-2.6756,-2.6749,-2.6764,-2.6757,-2.6757,-2.6758,0,-2.6305,-2.634,-2.6385,-2.6433,-2.6447,-2.6469,-2.651,-2.6537,-2.6576,-2.6594,-2.6621,-2.6644,-2.6676,-2.6679,-2.6724,-2.6714,-2.6733,-2.6751,-2.6752,-2.6758,-2.676,-2.6763,-2.6769,-2.6772,-2.6762,-2.6762,-2.6761,0,-2.6291,-2.6349,-2.6384,-2.6403,-2.6459,-2.6475,-2.6499,-2.6538,-2.6561,-2.6596,-2.6611,-2.6649,-2.667,-2.6699,-2.6731,-2.673,-2.6773,-2.6779,-2.6789,-2.6788,-2.6798,-2.6797,-2.6808,-2.6808,-2.6808,-2.6808,-2.6808,0,-2.6301,-2.6327,-2.6379,-2.64,-2.6431,-2.6466,-2.6496,-2.6522,-2.6557,-2.6584,-2.6611,-2.6635,-2.6676,-2.6706,-2.6731,-2.6765,-2.6774,-2.679,-2.6796,-2.6788,-2.6786,-2.6802,-2.6802,-2.6809,-2.6809,-2.6808,-2.6808,0,-2.629,-2.6325,-2.6366,-2.6416,-2.643,-2.645,-2.6494,-2.6516,-2.6543,-2.6577,-2.6587,-2.663,-2.6666,-2.6701,-2.675,-2.6767,-2.6802,-2.6809,-2.6789,-2.6793,-2.6802,-2.6801,-2.6824,-2.6829,-2.6824,-2.6824,-2.6824,0,-2.6294,-2.6316,-2.6369,-2.639,-2.6414,-2.6446,-2.647,-2.6506,-2.6529,-2.6576,-2.6592,-2.6631,-2.6664,-2.6722,-2.6757,-2.6795,-2.6804,-2.681,-2.681,-2.6802,-2.6806,-2.6805,-2.6808,-2.6809,-2.6809,-2.6809,-2.6809,0,-2.6299,-2.6316,-2.6349,-2.6389,-2.6417,-2.645,-2.6484,-2.6499,-2.6541,-2.6566,-2.6605,-2.663,-2.6681,-2.6719,-2.6761,-2.6786,-2.6805,-2.6809,-2.6814,-2.6806,-2.6793,-2.6801,-2.6788,-2.6808,-2.6808,-2.6808,-2.6808,-2.6808,-2.6297,-2.6318,-2.6359,-2.6396,-2.6425,-2.6456,-2.648,-2.6511,-2.6544,-2.6588,-2.6607,-2.6646,-2.6685,-2.6744,-2.6768,-2.6799,-2.6804,-2.681,-2.6812,-2.6813,-2.6812,-2.6788,-2.6807,-2.6807,-2.6807,-2.6807,-2.6807,0,-2.6303,-2.6332,-2.6365,-2.6413,-2.6442,-2.6457,-2.6496,-2.6519,-2.6553,-2.6588,-2.6621,-2.6665,-2.6703,-2.6741,-2.6781,-2.6799,-2.6809,-2.6808,-2.6808,-2.6814,-2.6805,-2.6798,-2.68,-2.68,-2.68,-2.68,-2.68,-2.68,-2.631,-2.6347,-2.6369,-2.6421,-2.6449,-2.6488,-2.6509,-2.6538,-2.6566,-2.6615,-2.6647,-2.6672,-2.6709,-2.6752,-2.6787,-2.6798,-2.6812,-2.6809,-2.6822,-2.6814,-2.6814,-2.6814,-2.6808,-2.6812,-2.6812,-2.6828,-2.6828,-2.6828]}]]